Bellingham, Washington, United States (98225)
Lat: 48.76N, Lon: 122.49W
Wx Zone: WAZ503
Local Info
Past Weather Observations for Sunday, September 28, 2014

NOTE: This archive is for the closest National Weather Service station to Bellingham. Information may differ from the station used for current weather conditions.

Click here for Long-term Archive

Time Weather Temperature Dewpoint Humidity Pressure Winds Precip Visibility
23:53
Mostly Cloudy
Fog And Mist
57°F / 14°C 54°F / 12°C 88% 29.89 in
(1012 mb)
SSE 8.1 mph
(SSE 13 kph)
- 4SM
23:45
Partly Cloudy
Fog And Mist
57°F / 14°C 54°F / 12°C 88% 29.89 in
(1012 mb)
S 9.2 mph
(S 15 kph)
- 5SM
22:53
Clear
Fog And Mist
55°F / 13°C 54°F / 12°C 94% 29.89 in
(1012 mb)
S 5.8 mph
(S 9 kph)
- 6SM
21:53
Clear
55°F / 13°C 54°F / 12°C 94% 29.92 in
(1013 mb)
SSE 3.5 mph
(SSE 6 kph)
- 9SM
20:53
Clear
55°F / 13°C 52°F / 11°C 88% 29.92 in
(1013 mb)
S 3.5 mph
(S 6 kph)
- 8SM
19:53
Clear
54°F / 12°C 52°F / 11°C 94% 29.92 in
(1013 mb)
Calm - 8SM
18:53
Clear
54°F / 12°C 50°F / 10°C 88% 29.92 in
(1013 mb)
Calm - 8SM
17:53
Clear
57°F / 14°C 54°F / 12°C 88% 29.92 in
(1013 mb)
Calm - 9SM
16:53
Clear
61°F / 16°C 54°F / 12°C 77% 29.95 in
(1014 mb)
Calm - 10SM
15:53
Clear
61°F / 16°C 55°F / 13°C 83% 29.95 in
(1014 mb)
SSE 4.6 mph
(SSE 7 kph)
- 9SM
14:53
Clear
63°F / 17°C 55°F / 13°C 77% 29.95 in
(1014 mb)
S 5.8 mph
(S 9 kph)
- 10SM
13:53
Clear
64°F / 18°C 55°F / 13°C 73% 29.98 in
(1015 mb)
Variable 3.5 mph
(Variable 6 kph)
- 10SM
12:53
Partly Cloudy
64°F / 18°C 55°F / 13°C 73% 29.98 in
(1015 mb)
Calm - 10SM
11:53
Partly Cloudy
61°F / 16°C 55°F / 13°C 83% 30.01 in
(1016 mb)
W 6.9 mph
(W 11 kph)
- 8SM
10:53
Partly Cloudy
63°F / 17°C 54°F / 12°C 73% 30.01 in
(1016 mb)
Variable 5.8 mph
(Variable 9 kph)
- 10SM
10:46
Partly Cloudy
63°F / 17°C 55°F / 13°C 77% 30.04 in
(1017 mb)
Calm - 10SM
10:24
Mostly Cloudy
Hazy
61°F / 16°C 55°F / 13°C 83% 30.04 in
(1017 mb)
N 4.6 mph
(N 7 kph)
- 4SM
09:53
Overcast
Fog And Mist
57°F / 14°C 54°F / 12°C 88% 30.04 in
(1017 mb)
Calm - 3SM
09:37
Overcast
Fog And Mist
55°F / 13°C 54°F / 12°C 94% 30.04 in
(1017 mb)
Calm - 3SM
09:17
Obscured
Fog And Mist
55°F / 13°C 54°F / 12°C 94% 30.04 in
(1017 mb)
Calm - 1SM
08:53
Obscured
Fog
55°F / 13°C 54°F / 12°C 94% 30.04 in
(1017 mb)
Calm - 1/4SM
08:06
Obscured
Fog
55°F / 13°C 54°F / 12°C 94% 30.06 in
(1018 mb)
Calm - 1/4SM
07:53
Obscured
Fog
55°F / 13°C 54°F / 12°C 94% 30.06 in
(1018 mb)
Calm - M1/4SM
07:08
Obscured
Fog
54°F / 12°C 54°F / 12°C 100% 30.06 in
(1018 mb)
Calm - M1/4SM
06:53
Obscured
Fog And Mist
54°F / 12°C 54°F / 12°C 100% 30.06 in
(1018 mb)
Calm - 3/4SM
06:48
Obscured
Fog And Mist
54°F / 12°C 52°F / 11°C 94% 30.06 in
(1018 mb)
Calm - 3/4SM
06:44
Overcast
Fog And Mist
54°F / 12°C 52°F / 11°C 94% 30.06 in
(1018 mb)
Calm - 1SM
05:53
Overcast
Fog And Mist
54°F / 12°C 52°F / 11°C 94% 30.06 in
(1018 mb)
Calm - 2SM
05:48
Overcast
Fog And Mist
54°F / 12°C 52°F / 11°C 94% 30.06 in
(1018 mb)
Calm - 2 1/2SM
04:53
Overcast
Fog And Mist
52°F / 11°C 52°F / 11°C 100% 30.06 in
(1018 mb)
Calm - 1 1/2SM
04:49
Obscured
Fog And Mist
52°F / 11°C 50°F / 10°C 94% 30.06 in
(1018 mb)
Calm - 1SM
04:40
Obscured
Fog
52°F / 11°C 50°F / 10°C 94% 30.06 in
(1018 mb)
Calm - 1/2SM
04:22
Overcast
Fog And Mist
52°F / 11°C 50°F / 10°C 94% 30.06 in
(1018 mb)
Calm - 1 1/4SM
04:06
Obscured
Fog And Mist
52°F / 11°C 50°F / 10°C 94% 30.06 in
(1018 mb)
Calm - 3/4SM
03:53
Overcast
Fog And Mist
52°F / 11°C 48°F / 9°C 88% 30.06 in
(1018 mb)
Calm - 2SM
03:31
Overcast
Fog And Mist
50°F / 10°C 48°F / 9°C 94% 30.06 in
(1018 mb)
Calm - 3SM
03:24
Overcast
Fog And Mist
50°F / 10°C 48°F / 9°C 94% 30.06 in
(1018 mb)
Calm - 2 1/2SM
03:10
Overcast
Fog And Mist
50°F / 10°C 48°F / 9°C 94% 30.06 in
(1018 mb)
Calm - 5SM
03:01
Overcast
Fog And Mist
48°F / 9°C 48°F / 9°C 100% 30.06 in
(1018 mb)
Calm - 2SM
02:53
Overcast
Fog And Mist
48°F / 9°C 46°F / 8°C 94% 30.06 in
(1018 mb)
Calm - 1 1/4SM
02:49
Overcast
Fog And Mist
48°F / 9°C 46°F / 8°C 94% 30.06 in
(1018 mb)
Calm - 1SM
02:04
Obscured
Fog
48°F / 9°C 46°F / 8°C 94% 30.06 in
(1018 mb)
Calm - 1/2SM
01:56
Mostly Cloudy
Fog And Mist
48°F / 9°C 46°F / 8°C 94% 30.06 in
(1018 mb)
Calm - 3/4SM
01:53
Mostly Cloudy
Fog And Mist
48°F / 9°C 46°F / 8°C 94% 30.09 in
(1019 mb)
Calm - 2SM
01:25
Partly Cloudy
Fog And Mist
48°F / 9°C 46°F / 8°C 94% 30.09 in
(1019 mb)
Calm - 3SM
01:06
Overcast
Fog And Mist
48°F / 9°C 46°F / 8°C 94% 30.09 in
(1019 mb)
Calm - 2 1/2SM
01:03
Obscured
Fog And Mist
48°F / 9°C 46°F / 8°C 94% 30.09 in
(1019 mb)
Calm - 1SM
00:57
Obscured
Fog
48°F / 9°C 46°F / 8°C 94% 30.09 in
(1019 mb)
Calm - 1/2SM
00:53
Obscured
Fog And Mist
48°F / 9°C 46°F / 8°C 94% 30.09 in
(1019 mb)
Calm - 1SM
00:34
Obscured
Fog And Mist
48°F / 9°C 46°F / 8°C 94% 30.09 in
(1019 mb)
Calm - 1SM
00:29
Obscured
Fog
48°F / 9°C 46°F / 8°C 94% 30.09 in
(1019 mb)
Calm - 1/2SM
00:20
Obscured
Fog
48°F / 9°C 46°F / 8°C 94% 30.09 in
(1019 mb)
Calm - 1/4SM
00:10
Obscured
Fog
48°F / 9°C 46°F / 8°C 94% 30.09 in
(1019 mb)
Calm - 1/2SM
00:02
Mostly Cloudy
Fog And Mist
50°F / 10°C 48°F / 9°C 94% 30.09 in
(1019 mb)
Calm - 1 1/4SM
Time Weather Temperature Dewpoint Humidity Pressure Winds Precip Visibility


Weather for websites

WeatherForYou.com, LLC is not responsible for any damages or problems caused by this service. Current weather conditions are obtained from the closest station including government and personal stations which may have varying degrees of accuracy. Weather forecasts are derived from the NOAA NDFD. Like all things, this site belongs to Jesus Christ... He just trusts me to maintain it. If you have any questions or comments email webmaster@weatherforyou.com

Copyright © 2014, WeatherForYou.com LLC. All rights reserved.